Portada
METAR-TAF:

METAR-TAF

Aeropuertos :

Pittsfield Penstone Municipal Airport

Pittsfield, Illinois, Estados Unidos

latitud: 39-38-20N, longitud: 090-46-42W, altitud: 216 m

Observación

El informe se hizo hace 26 minutos, a las 02:35 UTC
Viento calma
Temperatura 21°C
Humedad 100%
Presión 1017 hPa
Visibilidad: 16.1 km
Cielo despejado

METAR: KPPQ 230235Z AUTO 00000KT 10SM CLR 21/21 A3004 RMK AO2 T02090206

Hora: 22:01 (03:01 UTC)


TAF: falta

Observaciones y pronósticos meteorológicos de más de 4000 aeropuertos (mensajes METAR y TAF).

Los puntos amarillos y rojos representan las estaciones disponibles.

Ponga el ratón en el punto deseado para ver el nombre de la estación.

Haga clic para ver las observaciones y los pronósticos meteorológicos.

Para cambiar el mapa : haga clic en los botones verdes con una cruz de color negro para hacer un zoom, en el botón verde con un guión para alejar o en las flechas verdes para mapas adyacentes.


METAR-TAF: